ARIANE 5 DEB (SYLDA), 42817

Orbit data source: Space-Track

ARIANE 5 DEB (SYLDA), 42817 is space debris in HEO originally from a launch on Wed, 28 Jun 2017 UTC launched from the French Guiana (FRGUI). Debris objects in space refer to the collection of defunct objects orbiting the Earth. Examples of debris include non-operational satellites, rocket bodies, and fragments generated from explosions, collisions, or faulty payload assembly.

Loading next visibility...
Identifier
42817, 2017-040D
Orbit
HEO
Last TLE update
1 day ago
Origin
Manufacturer
ADS/Bremen
Mission
Spacecraft
Bus & Motor
SYLDA 5, Unknown motor
Mass
440 kg wet, 440 kg dry
Launch date (UTC)
2017-06-28 (8 years ago)
Launch vehicle
Unknown
Launch site
French Guiana (FRGUI)
Object type
Payload
Rocket body
Debris
Shape & HBR
Cyl, 5.5 m
Radar Cross Section
27.391 m², Large (>1 m²)

Expand to show TLE details & history

TLE from 1 day ago
0 ARIANE 5 DEB (SYLDA)
1 42817U 17040D   25181.32148280  .00014522  00000-0  34206-2 0  9990
2 42817   2.8741 330.5761 5803664 352.9168   1.4710  4.32633882 94945
Epoch: 2025-06-30T07:42Z
TLE epoch observation values (Epoch: 2025-06-30T07:42:56.113Z)
Latitude
0.00003°
Longitude
-63.75182°
Altitude
315.752 km
Speed
9.697 km/s
True Right ascension
22h 02m 27s
True Declination
0° 00' 00"
Sunlit
Object was in full shadow at epoch
Visualization orbit readout
Latitude
-2.17677°
Longitude
164.1185°
Altitude
9,623.84 km
Speed
4.976 km/s
Apparent Right ascension
12h 32m 59s
Apparent Declination
-13° 20' 20"
Sunlit
Object is in daylight
Visualization observer readout
Local Sidereal Time
22:11:07
Azimuth
300.424° NW
Elevation
-49.1°
Doppler factor
1
Orbital elements
Apogee altitude
18,772.691 km
Perigee altitude
300.145 km
Semi-major axis
15,914.555 km
Eccentricity
0.58037
Inclination
2.8741°
RAAN
330.5761°
Arg. of periapsis
352.9168°
True anomaly
Unknown
Mean anomaly
1.471°
Eccentric anomaly
Unknown
Mean motion
1.08106 °/min
Orbital period
333.01 mins
BSTAR
0.0034206
Loading maneuver chart data...
Loading SW <> Apogee altitude chart data...
Loading historical data...
Loading historical data...
Loading historical data...
Loading historical data...
Loading historical data...
Loading historical data...
Loading historical data...
Other satellites on launch #40 in the year 2017 (2017-06-28 UTC)

ARIANE 5 DEB (SYLDA) Visibility forecast

Observer location: undefined°, undefined°

Span
Click to sort rows by Start time (UTC) header in descending order
Start Az.
Max El. time (UTC)
Max El. Az.
Max El.
End time (UTC)
End Az.
232 mins2025-07-01 17:23:39.110Z213.304° SW2025-07-01 18:03:39.110Z157.326° SSE28.408°2025-07-01 21:15:39.110Z120.462° SE
195 mins2025-07-02 00:23:39.110Z247.689° W2025-07-02 03:08:39.110Z215.219° SW19.424°2025-07-02 03:38:39.110Z172.669° S
|